Location: Bannatyne
(13.0833°N, 59.5333°W)
Time: 07:24:11
(UTC+00:00)

Envisat - Pass Details

Date: 18 October 2019
Orbit: 764 x 766 km, 98.1° (Epoch: 18 November)

Event Time Altitude Azimuth Distance (km) Brightness Sun altitude
Rises 21:55:14 0° 153° (SSE) 3,222 6.0 -5.1°
Reaches altitude 10° 21:57:38 10° 147° (SSE) 2,296 5.2 -5.7°
Maximum altitude 22:02:24 42° 76° (ENE) 1,074 3.3 -6.8°
Drops below altitude 10° 22:07:09 10° 6° (N) 2,297 5.3 -7.9°
Sets 22:09:33 0° 360° (N) 3,223 6.2 -8.5°
